TimeEDT,TemperatureF,Dew PointF,Humidity,Sea Level PressureIn,VisibilityMPH,Wind Direction,Wind SpeedMPH,Gust SpeedMPH,PrecipitationIn,Events,Conditions,WindDirDegrees,DateUTC
12:51 AM,54.0,45.0,72,30.13,10.0,ENE,5.8,-,N/A,,Scattered Clouds,60,2013-05-18 04:51:00
1:51 AM,55.9,44.1,64,30.12,10.0,ENE,8.1,-,N/A,,Mostly Cloudy,60,2013-05-18 05:51:00
2:51 AM,54.0,44.1,69,30.12,10.0,East,6.9,-,N/A,,Partly Cloudy,80,2013-05-18 06:51:00
3:51 AM,52.0,43.0,71,30.11,10.0,East,8.1,-,N/A,,Clear,90,2013-05-18 07:51:00
4:51 AM,53.1,43.0,69,30.10,10.0,East,8.1,-,N/A,,Partly Cloudy,90,2013-05-18 08:51:00
5:51 AM,52.0,42.1,69,30.12,10.0,East,6.9,-,N/A,,Mostly Cloudy,90,2013-05-18 09:51:00
6:51 AM,54.0,43.0,66,30.14,10.0,ESE,6.9,-,N/A,,Mostly Cloudy,110,2013-05-18 10:51:00
7:51 AM,57.0,43.0,59,30.14,10.0,East,8.1,-,N/A,,Mostly Cloudy,100,2013-05-18 11:51:00
8:51 AM,59.0,44.1,58,30.16,10.0,ESE,11.5,-,N/A,,Overcast,110,2013-05-18 12:51:00
9:51 AM,63.0,46.9,56,30.15,10.0,ESE,8.1,-,N/A,,Mostly Cloudy,120,2013-05-18 13:51:00
10:51 AM,66.9,48.9,52,30.13,10.0,SSE,5.8,-,N/A,,Overcast,150,2013-05-18 14:51:00
11:51 AM,73.0,52.0,48,30.13,10.0,Calm,Calm,-,N/A,,Overcast,0,2013-05-18 15:51:00
12:51 PM,75.0,52.0,44,30.12,10.0,East,5.8,-,N/A,,Mostly Cloudy,100,2013-05-18 16:51:00
1:51 PM,77.0,44.1,31,30.10,10.0,East,4.6,-,N/A,,Mostly Cloudy,90,2013-05-18 17:51:00
2:51 PM,79.0,46.0,31,30.07,10.0,Calm,Calm,-,N/A,,Mostly Cloudy,0,2013-05-18 18:51:00
3:51 PM,81.0,46.0,29,30.06,10.0,ESE,5.8,-,N/A,,Mostly Cloudy,120,2013-05-18 19:51:00
4:51 PM,81.0,46.0,29,30.04,10.0,Variable,5.8,-,N/A,,Scattered Clouds,0,2013-05-18 20:51:00
5:51 PM,81.0,45.0,28,30.04,10.0,SSE,4.6,-,N/A,,Scattered Clouds,150,2013-05-18 21:51:00
6:51 PM,80.1,46.0,30,30.04,10.0,SE,3.5,-,N/A,,Scattered Clouds,130,2013-05-18 22:51:00
7:51 PM,75.0,50.0,41,30.04,10.0,East,6.9,-,N/A,,Scattered Clouds,90,2013-05-18 23:51:00
8:51 PM,69.1,51.1,53,30.05,10.0,East,5.8,-,N/A,,Scattered Clouds,90,2013-05-19 00:51:00
9:51 PM,70.0,54.0,57,30.06,10.0,ESE,11.5,-,N/A,,Mostly Cloudy,120,2013-05-19 01:51:00
10:51 PM,70.0,57.9,65,30.06,10.0,SE,10.4,-,N/A,,Mostly Cloudy,140,2013-05-19 02:51:00
11:51 PM,66.0,59.0,78,30.06,10.0,ESE,10.4,-,N/A,,Scattered Clouds,110,2013-05-19 03:51:00